Key West NAF, FL

9:39 AM EST on January 22, 2018 (GMT -0500)
Key West Naval Air Station

Weather History for KNQX - May, 2014

Change the Weather History Date:

Wednesday, May 7, 2014

  Actual Average Record
Temperature  
Mean Temperature 82 °F -  
Max Temperature 87 °F 84 °F 88 °F (1978)
Min Temperature 78 °F 75 °F 68 °F (1992)
Cooling Degree Days 17    
Growing Degree Days 32 (Base 50)    
Moisture  
Dew Point 69 °F    
Average Humidity 66    
Maximum Humidity 74    
Minimum Humidity 53    
Precipitation  
Precipitation 0.00 in - - ()
Sea Level Pressure  
Sea Level Pressure 30.04 in    
Wind  
Wind Speed 14 mph (ESE)    
Max Wind Speed 21 mph    
Max Gust Speed 26 mph    
Visibility 10 miles    
Events      
Averages and records for this station are not official NWS values.
T = Trace of Precipitation, MM = Missing Value Source: NWS Daily Summary

Daily Weather History Graph

Daily Weather History Graph

Search for Another Location

Airport or City:

Trip Planner

Search our weather history database for the weather conditions in past years. The results will help you decide how hot, cold, wet, or windy it might be!

Date:

Astronomy

May. 07, 2014 Rise Set
Actual Time 6:47 AM EDT 7:59 PM EDT
Civil Twilight 6:23 AM EDT 8:23 PM EDT
Nautical Twilight 5:54 AM EDT 8:52 PM EDT
Astronomical Twilight 5:25 AM EDT 9:22 PM EDT
Moon 1:46 PM EDT (5/7) 2:01 AM EDT (5/7)
Length of Visible Light 14h 00m
Length of Day
13h 11m
First Quarter, 55% of the Moon is Illuminated
May 7
First Quarter
May 14
Full
May 21
Last Quarter
May 28
New
Jun 5
First Quarter

Hourly Weather History & Observations

Time (EDT) Temp. Heat Index Dew Point Humidity Pressure Visibility Wind Dir Wind Speed Gust Speed Precip Events Conditions
12:53 AM 78.1 °F - 68.0 °F 71% 30.01 in 10.0 mi East 12.7 mph - N/A   Scattered Clouds
1:53 AM 78.1 °F - 68.0 °F 71% 30.00 in 10.0 mi East 12.7 mph - N/A   Scattered Clouds
2:53 AM 78.1 °F - 68.0 °F 71% 29.98 in 10.0 mi East 13.8 mph - N/A   Partly Cloudy
3:53 AM 79.0 °F - 69.1 °F 72% 29.99 in 10.0 mi East 11.5 mph - N/A   Scattered Clouds
4:53 AM 79.0 °F - 70.0 °F 74% 29.99 in 10.0 mi ESE 17.3 mph - N/A   Scattered Clouds
5:53 AM 78.1 °F - 68.0 °F 71% 30.00 in 10.0 mi ESE 12.7 mph - N/A   Partly Cloudy
6:07 AM 78.1 °F - 68.0 °F 71% 30.01 in 10.0 mi East 12.7 mph - N/A   Scattered Clouds
6:53 AM 78.1 °F - 69.1 °F 74% 30.02 in 10.0 mi ESE 12.7 mph - N/A   Scattered Clouds
7:53 AM 79.0 °F - 68.0 °F 69% 30.05 in 10.0 mi ESE 13.8 mph - N/A   Scattered Clouds
8:53 AM 82.0 °F 84.9 °F 68.0 °F 62% 30.06 in 10.0 mi East 13.8 mph - N/A   Scattered Clouds
9:53 AM 82.9 °F 84.6 °F 64.9 °F 54% 30.08 in 10.0 mi ESE 12.7 mph - N/A   Partly Cloudy
10:53 AM 84.9 °F 87.1 °F 66.0 °F 53% 30.09 in 10.0 mi ESE 13.8 mph 17.3 mph N/A   Partly Cloudy
11:53 AM 84.9 °F 88.8 °F 69.1 °F 59% 30.08 in 10.0 mi ESE 15.0 mph - N/A   Partly Cloudy
12:53 PM 86.0 °F 90.7 °F 70.0 °F 59% 30.07 in 10.0 mi East 16.1 mph - N/A   Partly Cloudy
1:53 PM 86.0 °F 90.7 °F 70.0 °F 59% 30.07 in 10.0 mi ESE 15.0 mph - N/A   Partly Cloudy
2:53 PM 86.0 °F 91.5 °F 71.1 °F 61% 30.06 in 10.0 mi ESE 16.1 mph - N/A   Partly Cloudy
3:53 PM 86.0 °F 91.5 °F 71.1 °F 61% 30.04 in 10.0 mi East 17.3 mph - N/A   Scattered Clouds
4:53 PM 82.9 °F 87.5 °F 71.1 °F 67% 30.04 in 10.0 mi East 18.4 mph - N/A   Scattered Clouds
5:53 PM 82.9 °F 87.0 °F 70.0 °F 65% 30.04 in 10.0 mi ESE 16.1 mph - N/A   Scattered Clouds
6:53 PM 82.0 °F 85.5 °F 69.1 °F 65% 30.04 in 10.0 mi East 19.6 mph - N/A   Scattered Clouds
7:53 PM 80.1 °F 82.7 °F 68.0 °F 67% 30.05 in 10.0 mi East 17.3 mph - N/A   Scattered Clouds
8:53 PM 80.1 °F 82.9 °F 69.1 °F 69% 30.06 in 10.0 mi East 18.4 mph - N/A   Scattered Clouds
9:53 PM 80.1 °F 82.7 °F 68.0 °F 67% 30.06 in 10.0 mi East 19.6 mph - N/A   Scattered Clouds
10:53 PM 80.1 °F 82.9 °F 69.1 °F 69% 30.08 in 10.0 mi ESE 17.3 mph - N/A   Partly Cloudy
11:53 PM 80.1 °F 82.7 °F 68.0 °F 67% 30.08 in 10.0 mi ESE 20.7 mph 26.5 mph N/A   Clear